This is the latest recevied weather packets stored in our database for station/object N0NPO. If no packets are shown the sender has not sent any weather packets the latest 10 day(s).
| Time | Temp. | Humidity | Pressure | Rain* | Wind** | Luminosity | Snow |
|---|---|---|---|---|---|---|---|
| 1777570069 | 10° C | 1% | 1024.6 hPa | 0 mm | - | 721 W/m² | - |
| 1777569764 | 10° C | 1% | 1024.9 hPa | 0 mm | - | 628 W/m² | - |
| 1777569460 | 10° C | 1% | 1025 hPa | 0 mm | - | 679 W/m² | - |
| 1777569158 | 10° C | 1% | 1024.8 hPa | 0 mm | - | 710 W/m² | - |
| 1777568854 | 10° C | 1% | 1025 hPa | 0 mm | - | 683 W/m² | - |
| 1777568551 | 10° C | 1% | 1025 hPa | 0 mm | - | 734 W/m² | - |
| 1777568248 | 10° C | 1% | 1025.2 hPa | 0 mm | - | 751 W/m² | - |
| 1777567945 | 9.44° C | 1% | 1025 hPa | 0 mm | - | 774 W/m² | - |
| 1777567641 | 9.44° C | 1% | 1025.1 hPa | 0 mm | - | 746 W/m² | - |
| 1777567338 | 9.44° C | 1% | 1025.1 hPa | 0 mm | - | 746 W/m² | - |
| 1777567037 | 9.44° C | 1% | 1025.1 hPa | 0 mm | - | 762 W/m² | - |
| 1777566734 | 8.89° C | 1% | 1025.1 hPa | 0 mm | - | 739 W/m² | - |
| 1777566432 | 8.89° C | 1% | 1025.3 hPa | 0 mm | - | 696 W/m² | - |
| 1777566129 | 8.89° C | 1% | 1025.3 hPa | 0 mm | - | 664 W/m² | - |
| 1777565824 | 8.89° C | 1% | 1025.4 hPa | 0 mm | - | 675 W/m² | - |
| 1777565521 | 8.33° C | 1% | 1025.2 hPa | 0 mm | - | 656 W/m² | - |
| 1777565217 | 8.33° C | 1% | 1025.3 hPa | 0 mm | - | 637 W/m² | - |
| 1777564913 | 8.33° C | 1% | 1025.4 hPa | 0 mm | - | 662 W/m² | - |
| 1777564609 | 8.33° C | 1% | 1025.3 hPa | 0 mm | - | 628 W/m² | - |
| 1777564304 | 8.33° C | 1% | 1025.5 hPa | 0 mm | - | 626 W/m² | - |
| 1777564001 | 8.33° C | 1% | 1025.2 hPa | 0 mm | - | 602 W/m² | - |
| 1777563697 | 8.33° C | 1% | 1025.5 hPa | 0 mm | - | 574 W/m² | - |
| 1777563393 | 7.78° C | 1% | 1025.4 hPa | 0 mm | - | 588 W/m² | - |
| 1777563088 | 7.78° C | 1% | 1025.5 hPa | 0 mm | - | 561 W/m² | - |
| 1777562784 | 7.78° C | 1% | 1025.4 hPa | 0 mm | - | 537 W/m² | - |
* Rain latest hour (hover to see other rain measurements)
** Current wind speed in m/s (hover to see current wind gust speed)